Location: Mat�lon
(46.2791°N, 7.1028°E)
Time: 01:15:09
(UTC+00:00)

Cosmos 2285 Rocket - Pass Details

Date: 18 September 2020
Orbit: 970 x 1000 km, 74.0° (Epoch: 31 October)

Event Time Altitude Azimuth Distance (km) Brightness Sun altitude
Rises 19:31:39 0° 184° (S) 3,649 6.8 -20.1°
Reaches altitude 10° 19:34:13 10° 180° (S) 2,708 6.1 -20.5°
Maximum altitude 19:40:18 55° 105° (ESE) 1,166 4.0 -21.4°
Drops below altitude 10° 19:46:27 10° 30° (NNE) 2,742 6.3 -22.4°
Sets 19:49:03 0° 26° (NNE) 3,698 7.1 -22.8°
